[[{"header":{"parameterUnit":"m.s-1","parameterCategory":1,"la1":30.2991,"la2":30.254,"lo1":-89.0895,"lo2":-89.0444,"dy":0.0017,"dx":0.0017,"nx":28,"ny":28,"refTime":"2023-11-09T03:00:00:Z","depth":0,"parameterNumber":2,"parameterNumberName":"U-component_of_WINDS"},"data":[0,0,0,0,0,0,0,0,0,0,0,0,0,0,0,0,0,0,0,0,0,0,0,0,0,0,0,0,0,0,0,0,0,0,0,0,0,0,0,0,0,0,0,0,0,0,0,0,0,0,0,0,0,0,0,0,0,0,-2.5621,-2.5621,0,-2.5618,-2.5618,-2.5618,-2.559,-2.5589,-2.5588,-2.5588,-2.5584,-2.5584,-2.5585,0,0,0,0,0,0,0,0,0,0,0,0,0,-2.5603,-2.5604,-2.5621,-2.5621,-2.5621,-2.5618,-2.5618,-2.5618,-2.559,-2.5589,-2.5588,-2.5587,-2.5583,-2.5584,-2.5585,0,0,0,0,0,0,0,0,0,0,0,0,0,-2.5606,-2.5604,-2.5621,-2.5607,-2.5606,-2.5618,-2.5618,-2.5618,-2.559,-2.5589,-2.5588,-2.5587,-2.5583,-2.5584,-2.5585,-2.561,0,0,-2.5587,-2.5588,0,0,0,0,0,0,0,0,-2.5606,-2.5607,-2.5609,-2.5608,-2.5606,-2.5603,-2.561,-2.5615,-2.559,-2.5596,-2.5588,-2.5586,-2.5591,-2.5591,-2.5593,-2.561,-2.561,-2.5587,-2.5588,-2.5588,-2.5588,0,0,0,0,0,0,0,-2.5606,-2.5607,-2.562,-2.5609,-2.5607,-2.56,-2.56,-2.5611,-2.5599,-2.5595,-2.5593,-2.5593,-2.559,-2.5592,-2.5592,-2.561,-2.5587,-2.5588,-2.5588,-2.5589,-2.5647,-2.5648,0,0,0,0,0,0,-2.5608,-2.5607,-2.562,-2.562,-2.5604,-2.5601,-2.5601,-2.5605,-2.5599,-2.5597,-2.5594,-2.5592,-2.5591,-2.5591,-2.5592,-2.562,-2.5588,-2.5589,-2.5589,-2.5646,-2.5647,-2.5648,0,0,0,0,0,0,-2.5608,-2.5609,-2.562,-2.5613,-2.5614,-2.5603,-2.5608,-2.5606,-2.5607,-2.5598,-2.5596,-2.5598,-2.559,-2.5591,-2.5606,-2.5619,-2.5589,-2.559,-2.5645,-2.5646,-2.5648,-2.5677,0,0,0,0,0,0,-2.5607,-2.5609,-2.5619,-2.5613,-2.5614,-2.5634,-2.5609,-2.5606,-2.5609,-2.5606,-2.5601,-2.5599,-2.5589,-2.5605,-2.5606,-2.562,-2.5591,-2.5643,-2.5645,-2.5647,-2.5675,-2.568,-2.5684,0,0,0,0,0,-2.5607,-2.5628,-2.562,-2.5622,-2.5626,-2.5635,-2.5635,-2.5623,-2.561,-2.562,-2.5614,-2.56,-2.5618,-2.5606,-2.5608,-2.5622,-2.5642,-2.5645,-2.5647,-2.5673,-2.5679,-2.5684,0,0,0,0,0,0,-2.5636,-2.5627,-2.5618,-2.5638,-2.5637,-2.563,-2.5642,-2.563,-2.5633,-2.563,-2.5616,-2.5615,-2.5631,-2.5629,-2.5616,-2.5646,-2.5628,-2.5631,-2.5647,-2.5652,-2.5657,-2.5656,-2.5591,0,0,0,0,0,-2.5645,-2.5653,-2.5645,-2.5663,-2.5663,-2.5653,-2.5656,-2.5647,-2.5646,-2.5645,-2.564,-2.5639,-2.5645,-2.5649,-2.5653,-2.5675,-2.5673,-2.5686,-2.569,-2.5694,-2.5696,-2.5705,-2.571,-2.5656,-2.5656,-2.5656,0,0,-2.5663,-2.5659,-2.5665,-2.5669,-2.5667,-2.5675,-2.5653,-2.5663,-2.5668,-2.5647,-2.566,-2.5656,-2.5654,-2.5672,-2.568,-2.567,-2.5711,-2.5697,-2.57,-2.57,-2.5708,-2.5713,-2.5718,-2.5658,-2.5657,-2.5657,0,0,-2.57,-2.5699,-2.5713,-2.5712,-2.571,-2.5702,-2.5706,-2.5701,-2.5697,-2.571,-2.5694,-2.5701,-2.5711,-2.5709,-2.571,-2.5746,-2.5733,-2.5748,-2.577,-2.578,-2.5784,-2.5788,-2.5799,-2.5803,-2.5751,-2.5751,-2.5751,0,-2.5723,-2.5734,-2.5722,-2.5732,-2.5734,-2.5715,-2.5729,-2.5729,-2.5728,-2.5729,-2.5719,-2.5731,-2.5728,-2.5745,-2.5753,-2.5755,-2.5758,-2.5748,-2.5785,-2.5788,-2.5791,-2.5802,-2.5806,-2.5753,-2.5752,-2.5752,-2.5752,0,-2.5761,-2.577,-2.5782,-2.5781,-2.5784,-2.5797,-2.5786,-2.579,-2.5781,-2.5775,-2.5788,-2.5784,-2.5787,-2.5791,-2.5782,-2.5806,-2.5799,-2.5787,-2.5768,-2.5799,-2.5808,-2.5812,-2.5755,-2.5754,-2.5754,-2.5754,0,0,-2.5816,-2.5808,-2.5812,-2.5811,-2.5808,-2.5814,-2.5825,-2.5827,-2.5831,-2.5832,-2.584,-2.5849,-2.5837,-2.5838,-2.5829,-2.5837,-2.5864,-2.5824,-2.5823,-2.583,-2.5888,-2.5896,-2.5901,-2.5856,-2.5857,-2.5857,-2.5887,0,-2.585,-2.5868,-2.5857,-2.5876,-2.5883,-2.5865,-2.5875,-2.5873,-2.5868,-2.5873,-2.5867,-2.5872,-2.5857,-2.5858,-2.5866,-2.5859,-2.5875,-2.5857,-2.5862,-2.5862,-2.5861,-2.5906,-2.5914,-2.5943,-2.5891,-2.5892,-2.5892,0,-2.5891,-2.5893,-2.5913,-2.5907,-2.5909,-2.5918,-2.5919,-2.5924,-2.5922,-2.5917,-2.5918,-2.5906,-2.5916,-2.5899,-2.5911,-2.5899,-2.5901,-2.5898,-2.5899,-2.5897,-2.5878,-2.5904,-2.5952,-2.5955,-2.5898,-2.5898,-2.5897,0,-2.5926,-2.5934,-2.5946,-2.5946,-2.594,-2.5946,-2.5944,-2.5941,-2.5942,-2.5944,-2.5944,-2.5947,-2.5948,-2.595,-2.5939,-2.5928,-2.5952,-2.5935,-2.5948,-2.5948,-2.5952,-2.5952,-2.5999,-2.5957,-2.5957,-2.5957,-2.5956,0,-2.5964,-2.5977,-2.5962,-2.5969,-2.5983,-2.597,-2.5983,-2.5979,-2.5976,-2.5982,-2.5968,-2.5974,-2.596,-2.5965,-2.5957,-2.5967,-2.5968,-2.5964,-2.5961,-2.5964,-2.5965,-2.5964,-2.5961,-2.5958,-2.5957,-2.5957,-2.5957,0,-2.6005,-2.5996,-2.6008,-2.6001,-2.5999,-2.6009,-2.6003,-2.6009,-2.6003,-2.601,-2.6011,-2.6001,-2.6006,-2.5996,-2.5999,-2.5993,-2.6008,-2.6003,-2.6009,-2.6006,-2.6019,-2.6018,-2.6067,-2.6072,-2.6028,-2.6028,-2.6028,0,-2.6028,-2.6037,-2.6031,-2.6034,-2.6032,-2.6037,-2.6039,-2.6027,-2.6029,-2.6027,-2.6033,-2.6037,-2.6038,-2.6046,-2.6039,-2.6041,-2.6035,-2.6052,-2.6035,-2.6037,-2.6032,-2.6031,-2.6031,-2.6055,-2.6055,-2.6056,-2.6056,0,-2.6071,-2.6066,-2.6069,-2.607,-2.6072,-2.6073,-2.6072,-2.6076,-2.6063,-2.6066,-2.607,-2.6071,-2.6074,-2.6077,-2.6077,-2.6074,-2.6062,-2.6062,-2.6064,-2.6066,-2.6068,-2.6065,-2.6016,-2.606,-2.606,-2.6059,-2.6059,-2.6059,-2.6102,-2.6109,-2.6105,-2.6109,-2.6107,-2.6107,-2.6112,-2.6106,-2.6109,-2.611,-2.6103,-2.6108,-2.6105,-2.6104,-2.6103,-2.6106,-2.6098,-2.6103,-2.6104,-2.6105,-2.6106,-2.6069,-2.6107,-2.6106,-2.6106,-2.6106,-2.6106,0,-2.6142,-2.6139,-2.6142,-2.6142,-2.6144,-2.6134,-2.6132,-2.6135,-2.614,-2.6138,-2.614,-2.6144,-2.6146,-2.6139,-2.6141,-2.6145,-2.6139,-2.6145,-2.6144,-2.6143,-2.6114,-2.611,-2.615,-2.615,-2.615,-2.615,-2.615,-2.615,-2.6163,-2.6173,-2.6168,-2.6177,-2.6173,-2.6178,-2.6178,-2.6177,-2.6175,-2.618,-2.6182,-2.6178,-2.6173,-2.6174,-2.6176,-2.6174,-2.6174,-2.6182,-2.6177,-2.615,-2.6145,-2.6141,-2.6138,-2.6182,-2.6182,-2.6206,-2.6206,-2.6206]},{"header":{"parameterUnit":"m.s-1","parameterCategory":1,"la1":30.2991,"la2":30.254,"lo1":-89.0895,"lo2":-89.0444,"dy":0.0017,"dx":0.0017,"nx":28,"ny":28,"refTime":"2023-11-09T03:00:00:Z","depth":0,"parameterNumber":3,"parameterNumberName":"V-component_of_WINDS"},"data":[0,0,0,0,0,0,0,0,0,0,0,0,0,0,0,0,0,0,0,0,0,0,0,0,0,0,0,0,0,0,0,0,0,0,0,0,0,0,0,0,0,0,0,0,0,0,0,0,0,0,0,0,0,0,0,0,0,0,1.7103,1.7103,0,1.7142,1.7142,1.7142,1.7146,1.7146,1.7146,1.7145,1.7184,1.7185,1.7187,0,0,0,0,0,0,0,0,0,0,0,0,0,1.7035,1.7036,1.7103,1.7103,1.7104,1.7141,1.7142,1.7143,1.7146,1.7146,1.7146,1.7145,1.7183,1.7185,1.7187,0,0,0,0,0,0,0,0,0,0,0,0,0,1.7068,1.7036,1.7103,1.711,1.7112,1.7141,1.7142,1.7143,1.7147,1.7146,1.7145,1.7145,1.7183,1.7185,1.7187,1.7212,0,0,1.7193,1.7194,0,0,0,0,0,0,0,0,1.7066,1.707,1.7109,1.711,1.7111,1.7139,1.7132,1.7166,1.7147,1.7133,1.7145,1.7145,1.7169,1.7172,1.7181,1.7213,1.7215,1.7194,1.7195,1.7196,1.7196,0,0,0,0,0,0,0,1.7064,1.7069,1.7118,1.7109,1.7111,1.7113,1.7117,1.7138,1.7154,1.7134,1.7135,1.7139,1.717,1.7179,1.7182,1.7216,1.7194,1.7195,1.7197,1.7197,1.7274,1.7275,0,0,0,0,0,0,1.706,1.7067,1.7117,1.7119,1.7087,1.7114,1.7119,1.713,1.7154,1.7157,1.714,1.7139,1.7176,1.7179,1.7183,1.7216,1.7196,1.7198,1.7199,1.7273,1.7274,1.7275,0,0,0,0,0,0,1.7058,1.7064,1.7115,1.7093,1.71,1.7116,1.7129,1.7131,1.7141,1.7158,1.7161,1.7146,1.7175,1.718,1.7205,1.7217,1.7199,1.7201,1.7272,1.7273,1.7274,1.7279,0,0,0,0,0,0,1.7056,1.7064,1.7072,1.7093,1.7101,1.7136,1.713,1.7133,1.7144,1.7144,1.7165,1.7167,1.7175,1.7202,1.7207,1.7219,1.7202,1.7271,1.7273,1.7274,1.7278,1.728,1.7282,0,0,0,0,0,1.7054,1.7071,1.7073,1.7079,1.7112,1.7137,1.7141,1.715,1.7145,1.7155,1.7167,1.7167,1.7215,1.7205,1.7211,1.7223,1.727,1.7272,1.7274,1.7277,1.728,1.7282,0,0,0,0,0,0,1.705,1.7074,1.7076,1.7101,1.7117,1.7138,1.715,1.7152,1.717,1.7169,1.7179,1.7184,1.7209,1.7219,1.7207,1.725,1.7242,1.7245,1.7243,1.7246,1.7248,1.7245,1.7204,0,0,0,0,0,1.7053,1.707,1.709,1.711,1.7119,1.7133,1.7144,1.715,1.7167,1.7173,1.7187,1.7203,1.7222,1.7234,1.7253,1.728,1.7286,1.7292,1.7294,1.7296,1.7298,1.7316,1.732,1.7281,1.7281,1.7281,0,0,1.7057,1.7072,1.7083,1.711,1.7123,1.7142,1.7138,1.7158,1.7172,1.7176,1.7201,1.7212,1.7231,1.7258,1.7271,1.7267,1.7311,1.7298,1.7299,1.7301,1.7318,1.7322,1.7325,1.7282,1.7282,1.7281,0,0,1.7075,1.7088,1.7107,1.7121,1.7142,1.7152,1.7157,1.7178,1.7185,1.7211,1.7215,1.7233,1.7265,1.7279,1.7291,1.7318,1.732,1.7324,1.7335,1.7352,1.7355,1.7358,1.737,1.7373,1.7327,1.7327,1.7327,0,1.7078,1.7106,1.7116,1.7137,1.715,1.7156,1.7176,1.7189,1.7215,1.7224,1.722,1.7263,1.7276,1.7307,1.7314,1.7323,1.733,1.7321,1.7354,1.7357,1.736,1.7371,1.7375,1.7327,1.7327,1.7327,1.7327,0,1.711,1.713,1.7143,1.7169,1.7183,1.7204,1.7218,1.7232,1.7237,1.7248,1.7276,1.7292,1.7315,1.7323,1.7328,1.7357,1.7354,1.7352,1.7344,1.7364,1.7375,1.7379,1.7328,1.7327,1.7327,1.7327,0,0,1.7124,1.7158,1.7163,1.7176,1.7201,1.7217,1.7239,1.7262,1.7275,1.7293,1.7312,1.7341,1.734,1.7353,1.736,1.7375,1.7399,1.7372,1.7372,1.7377,1.7434,1.7436,1.744,1.74,1.7401,1.7402,1.7433,0,1.7146,1.7184,1.7196,1.7229,1.7249,1.7256,1.7276,1.7294,1.7305,1.7325,1.7337,1.7358,1.7355,1.7363,1.7379,1.7393,1.741,1.739,1.7419,1.742,1.7415,1.7445,1.7447,1.7475,1.7437,1.7437,1.7438,0,1.7175,1.7196,1.7231,1.7257,1.7265,1.7282,1.7307,1.7325,1.7346,1.7354,1.737,1.7377,1.7401,1.7393,1.7428,1.7414,1.7427,1.7436,1.7437,1.744,1.743,1.745,1.7484,1.7488,1.7444,1.7444,1.7443,0,1.7184,1.722,1.7247,1.7258,1.7288,1.73,1.7313,1.7334,1.7349,1.737,1.738,1.7404,1.7417,1.7435,1.7449,1.7441,1.7483,1.7475,1.7491,1.7491,1.7499,1.7498,1.7536,1.7507,1.7506,1.7506,1.7506,0,1.7207,1.7228,1.7252,1.7268,1.7293,1.7307,1.7332,1.7346,1.7365,1.7385,1.7393,1.7412,1.7428,1.7449,1.746,1.7489,1.7494,1.7502,1.7504,1.7501,1.75,1.751,1.7508,1.7508,1.7507,1.7507,1.7507,0,1.722,1.7236,1.7266,1.7293,1.7301,1.7318,1.7342,1.7359,1.7372,1.7397,1.7404,1.7425,1.7451,1.7466,1.7498,1.7506,1.7538,1.7539,1.7531,1.7532,1.7547,1.7546,1.7592,1.76,1.7565,1.7565,1.7565,0,1.7234,1.7251,1.7281,1.7295,1.7309,1.7331,1.7347,1.7363,1.7379,1.7407,1.7421,1.7448,1.747,1.7511,1.7529,1.7555,1.7557,1.7572,1.7561,1.7559,1.7559,1.7558,1.7561,1.7574,1.7574,1.7574,1.7574,0,1.7257,1.7265,1.7287,1.7313,1.7332,1.7353,1.7375,1.7386,1.7406,1.7424,1.7451,1.7468,1.7503,1.753,1.7558,1.7572,1.7577,1.7578,1.7583,1.758,1.7575,1.758,1.7536,1.7577,1.7576,1.7576,1.7576,1.7576,1.7271,1.7288,1.7313,1.7338,1.7356,1.7377,1.7395,1.7412,1.7435,1.7465,1.7473,1.7502,1.7526,1.7564,1.7579,1.7603,1.7601,1.7608,1.761,1.7612,1.7613,1.7572,1.7608,1.7608,1.7608,1.7608,1.7608,0,1.7296,1.7313,1.7336,1.7367,1.7388,1.7392,1.7417,1.7434,1.746,1.7482,1.7505,1.7538,1.7565,1.7586,1.7615,1.763,1.7633,1.7637,1.7636,1.764,1.7612,1.7606,1.7634,1.7634,1.7634,1.7634,1.7634,1.7634,1.7311,1.734,1.7352,1.7391,1.7408,1.7438,1.7452,1.7472,1.749,1.7527,1.755,1.7564,1.7587,1.7618,1.7644,1.7649,1.766,1.7663,1.767,1.7644,1.7641,1.7638,1.7632,1.7665,1.7665,1.7695,1.7695,1.7695]}]]